Location: Newark
(34.6283°N, 36.0776°E)
Time: 05:46:19
(UTC+00:00)

Tiros 1 despin weight - Pass Details

Date: 27 September 2019
Orbit: 593 x 643 km, 48.2° (Epoch: 19 October)

Event Time Altitude Azimuth Distance (km) Brightness Sun altitude
Rises 10:58:04 0° 310° (NW) 2,882 ? 47.9°
Reaches altitude 10° 11:01:11 10° 332° (NNW) 1,965 ? 47.5°
Maximum altitude 11:04:02 16° 11° (N) 1,580 ? 47.2°
Drops below altitude 10° 11:06:52 10° 51° (NE) 1,945 ? 46.8°
Sets 11:09:55 0° 73° (ENE) 2,838 ? 46.4°
